QPF
0.05 0.04 0.06 0.06 0.05 0.04 0.03 0.04 0.04 0.05 0.06 0.05 0.04 0.06 0.06 0.08 0.07 0.05 0.05 0.07 0.10 0.12 0.15 0.15 0.10 0.11 0.15 0.20 0.21 0.17 0.17 0.21 0.21 0.17 0.18 0.14 0.09 0.07 0.05 0.05 0.04 0.04 0.05
0.04 0.03 0.04 0.04 0.04 0.03 0.03 0.03 0.03 0.04 0.04 0.04 0.04 0.04 0.06 0.08 0.07 0.06 0.07 0.10 0.12 0.16 0.16 0.11 0.10 0.13 0.17 0.18 0.17 0.17 0.21 0.24 0.25 0.23 0.23 0.19 0.12 0.08 0.07 0.07 0.06 0.05 0.05
0.03 0.02 0.02 0.03 0.03 0.03 0.04 0.04 0.03 0.03 0.03 0.04 0.04 0.05 0.07 0.09 0.09 0.08 0.09 0.12 0.16 0.19 0.16 0.11 0.10 0.12 0.17 0.19 0.18 0.21 0.28 0.26 0.23 0.22 0.21 0.19 0.19 0.17 0.11 0.10 0.08 0.07 0.06
0.02 0.02 0.02 0.02 0.03 0.04 0.05 0.04 0.03 0.02 0.02 0.02 0.04 0.07 0.09 0.11 0.11 0.10 0.11 0.12 0.15 0.17 0.14 0.11 0.11 0.14 0.19 0.21 0.21 0.23 0.22 0.23 0.24 0.21 0.11 0.08 0.13 0.21 0.21 0.17 0.13 0.10 0.07
0.04 0.03 0.02 0.01 0.02 0.04 0.05 0.04 0.04 0.03 0.02 0.02 0.03 0.05 0.08 0.11 0.12 0.13 0.13 0.14 0.15 0.17 0.16 0.14 0.15 0.20 0.28 0.27 0.21 0.19 0.19 0.28 0.28 0.17 0.10 0.08 0.10 0.18 0.27 0.30 0.25 0.18 0.12
0.04 0.03 0.02 0.02 0.05 0.06 0.06 0.04 0.03 0.03 0.03 0.03 0.03 0.05 0.08 0.10 0.12 0.14 0.14 0.15 0.16 0.19 0.19 0.17 0.17 0.27 0.39 0.42 0.32 0.24 0.21 0.23 0.24 0.13 0.09 0.08 0.09 0.12 0.16 0.19 0.19 0.18 0.17
0.03 0.02 0.02 0.03 0.05 0.06 0.05 0.04 0.03 0.03 0.03 0.04 0.03 0.05 0.07 0.09 0.13 0.14 0.14 0.17 0.18 0.17 0.16 0.15 0.19 0.28 0.32 0.39 0.42 0.34 0.26 0.19 0.15 0.12 0.14 0.09 0.08 0.10 0.12 0.12 0.11 0.10 0.10
0.02 0.01 0.02 0.02 0.04 0.04 0.04 0.04 0.03 0.03 0.04 0.05 0.05 0.06 0.07 0.09 0.12 0.13 0.15 0.17 0.15 0.13 0.13 0.13 0.18 0.19 0.16 0.26 0.33 0.29 0.24 0.15 0.11 0.11 0.14 0.09 0.10 0.10 0.10 0.08 0.08 0.09 0.09
0.02 0.01 0.01 0.03 0.06 0.07 0.07 0.07 0.07 0.07 0.06 0.06 0.06 0.06 0.07 0.10 0.10 0.13 0.16 0.15 0.13 0.12 0.11 0.09 0.10 0.09 0.10 0.15 0.20 0.18 0.17 0.13 0.09 0.09 0.08 0.10 0.12 0.09 0.10 0.09 0.08 0.10 0.11
0.02 0.01 0.01 0.02 0.04 0.08 0.11 0.13 0.12 0.11 0.10 0.09 0.09 0.09 0.09 0.10 0.11 0.14 0.16 0.16 0.15 0.14 0.11 0.08 0.08 0.08 0.10 0.11 0.12 0.13 0.15 0.13 0.10 0.08 0.08 0.11 0.12 0.10 0.12 0.12 0.11 0.14 0.14
0.02 0.01 0.02 0.03 0.04 0.07 0.09 0.11 0.13 0.13 0.12 0.12 0.14 0.16 0.13 0.09 0.10 0.15 0.16 0.17 0.16 0.15 0.12 0.10 0.08 0.08 0.09 0.09 0.11 0.11 0.10 0.09 0.08 0.10 0.13 0.14 0.13 0.13 0.17 0.16 0.14 0.14 0.13
0.03 0.02 0.02 0.03 0.04 0.07 0.09 0.08 0.10 0.11 0.11 0.10 0.12 0.11 0.08 0.07 0.09 0.12 0.15 0.16 0.15 0.13 0.12 0.11 0.08 0.07 0.07 0.07 0.08 0.09 0.07 0.08 0.10 0.11 0.14 0.16 0.16 0.18 0.18 0.14 0.11 0.08 0.07
0.02 0.02 0.02 0.03 0.04 0.04 0.04 0.07 0.11 0.12 0.10 0.08 0.09 0.10 0.08 0.07 0.10 0.13 0.16 0.16 0.13 0.13 0.14 0.12 0.10 0.09 0.08 0.07 0.06 0.05 0.05 0.07 0.09 0.12 0.17 0.18 0.15 0.13 0.11 0.09 0.06 0.05 0.06
0.02 0.01 0.01 0.02 0.03 0.04 0.05 0.06 0.08 0.10 0.10 0.08 0.09 0.10 0.10 0.08 0.09 0.10 0.13 0.12 0.11 0.13 0.15 0.14 0.13 0.10 0.08 0.05 0.05 0.05 0.07 0.06 0.06 0.07 0.08 0.07 0.06 0.07 0.06 0.06 0.06 0.06 0.06
0.02 0.01 0.00 0.01 0.02 0.04 0.06 0.05 0.06 0.07 0.09 0.09 0.09 0.11 0.13 0.11 0.10 0.10 0.10 0.11 0.10 0.12 0.16 0.16 0.12 0.07 0.06 0.04 0.04 0.04 0.05 0.06 0.07 0.05 0.04 0.05 0.03 0.04 0.04 0.03 0.03 0.04 0.06
0.01 0.01 0.01 0.01 0.02 0.05 0.10 0.07 0.05 0.06 0.07 0.07 0.08 0.15 0.18 0.13 0.08 0.06 0.07 0.12 0.10 0.10 0.13 0.13 0.08 0.06 0.05 0.05 0.05 0.04 0.06 0.06 0.07 0.05 0.03 0.05 0.05 0.04 0.05 0.05 0.05 0.05 0.05
0.01 0.01 0.01 0.02 0.03 0.05 0.10 0.07 0.04 0.03 0.03 0.03 0.05 0.08 0.08 0.05 0.05 0.05 0.07 0.11 0.12 0.10 0.09 0.08 0.06 0.06 0.05 0.05 0.04 0.04 0.05 0.05 0.05 0.05 0.04 0.05 0.06 0.07 0.05 0.05 0.05 0.06 0.06
0.01 0.01 0.01 0.01 0.02 0.04 0.06 0.05 0.04 0.03 0.03 0.03 0.03 0.05 0.04 0.03 0.03 0.03 0.04 0.09 0.11 0.07 0.06 0.05 0.06 0.05 0.03 0.02 0.03 0.02 0.03 0.04 0.05 0.04 0.06 0.09 0.05 0.06 0.06 0.06 0.05 0.04 0.04
0.01 0.01 0.01 0.01 0.02 0.03 0.04 0.04 0.03 0.03 0.04 0.04 0.03 0.04 0.04 0.03 0.02 0.02 0.04 0.06 0.06 0.05 0.04 0.03 0.03 0.03 0.02 0.02 0.02 0.03 0.04 0.04 0.05 0.06 0.05 0.04 0.04 0.06 0.05 0.04 0.03 0.02 0.03
0.01 0.01 0.01 0.01 0.03 0.03 0.03 0.03 0.03 0.03 0.04 0.03 0.02 0.02 0.02 0.01 0.01 0.01 0.02 0.02 0.02 0.03 0.04 0.03 0.03 0.03 0.03 0.04 0.04 0.04 0.06 0.04 0.04 0.08 0.09 0.07 0.07 0.06 0.06 0.05 0.02 0.02 0.05
0.02 0.01 0.01 0.02 0.03 0.03 0.02 0.02 0.01 0.02 0.03 0.03 0.02 0.02 0.01 0.01 0.00 0.01 0.01 0.01 0.02 0.03 0.04 0.03 0.04 0.05 0.05 0.05 0.06 0.06 0.05 0.05 0.05 0.07 0.11 0.06 0.05 0.04 0.04 0.05 0.04 0.03 0.04
0.03 0.03 0.03 0.02 0.01 0.02 0.03 0.01 0.01 0.02 0.03 0.03 0.03 0.02 0.01 0.01 0.00 0.01 0.01 0.01 0.01 0.02 0.02 0.03 0.04 0.05 0.05 0.06 0.06 0.08 0.08 0.06 0.05 0.06 0.06 0.06 0.07 0.06 0.05 0.05 0.04 0.03 0.02
0.03 0.05 0.04 0.02 0.02 0.02 0.02 0.02 0.02 0.02 0.04 0.06 0.05 0.04 0.03 0.01 0.01 0.01 0.01 0.01 0.01 0.01 0.01 0.02 0.03 0.04 0.05 0.07 0.08 0.07 0.08 0.07 0.04 0.04 0.04 0.05 0.06 0.07 0.07 0.06 0.06 0.06 0.05
0.04 0.06 0.07 0.05 0.03 0.02 0.02 0.02 0.02 0.04 0.06 0.08 0.05 0.03 0.02 0.01 0.01 0.01 0.01 0.01 0.01 0.01 0.01 0.02 0.02 0.04 0.06 0.07 0.08 0.06 0.05 0.04 0.05 0.04 0.04 0.04 0.05 0.07 0.07 0.08 0.08 0.09 0.08
0.04 0.05 0.06 0.04 0.02 0.02 0.03 0.02 0.02 0.04 0.05 0.05 0.03 0.02 0.02 0.01 0.01 0.00 0.00 0.01 0.01 0.01 0.01 0.03 0.04 0.05 0.05 0.05 0.06 0.05 0.05 0.04 0.04 0.03 0.04 0.04 0.04 0.05 0.06 0.08 0.10 0.12 0.12
0.04 0.05 0.03 0.03 0.02 0.02 0.03 0.03 0.02 0.02 0.03 0.02 0.02 0.03 0.02 0.01 0.01 0.01 0.01 0.01 0.01 0.01 0.01 0.03 0.05 0.05 0.04 0.03 0.04 0.03 0.03 0.04 0.04 0.04 0.03 0.03 0.02 0.03 0.04 0.04 0.06 0.08 0.09
MSLP
1009.91 1009.10 1008.38 1007.78 1007.27 1006.85 1006.51 1006.22 1005.94 1005.63 1005.17 1004.45 1003.35 1001.76 999.66 997.13 994.34 991.57 989.18 987.47 986.71 987.00 988.31 990.46 993.15 996.06 998.85 1001.30 1003.30 1004.85 1006.05 1007.02 1007.90 1008.77 1009.66 1010.53 1011.34 1012.01 1012.53 1012.90 1013.16 1013.40 1013.68
1009.86 1009.12 1008.46 1007.89 1007.40 1006.98 1006.63 1006.33 1006.05 1005.74 1005.29 1004.57 1003.44 1001.80 999.62 996.95 993.99 991.04 988.47 986.62 985.78 986.05 987.42 989.70 992.57 995.68 998.67 1001.29 1003.42 1005.05 1006.28 1007.26 1008.13 1008.99 1009.87 1010.75 1011.57 1012.27 1012.80 1013.18 1013.45 1013.68 1013.96
1009.80 1009.15 1008.56 1008.03 1007.56 1007.15 1006.79 1006.49 1006.22 1005.93 1005.52 1004.86 1003.80 1002.22 1000.09 997.46 994.53 991.57 988.98 987.11 986.23 986.49 987.85 990.12 993.00 996.12 999.11 1001.73 1003.84 1005.45 1006.65 1007.60 1008.43 1009.27 1010.14 1011.03 1011.86 1012.57 1013.12 1013.51 1013.78 1014.01 1014.28
1009.73 1009.18 1008.66 1008.19 1007.75 1007.35 1007.00 1006.70 1006.44 1006.19 1005.85 1005.29 1004.37 1002.97 1001.04 998.62 995.89 993.12 990.68 988.90 988.06 988.30 989.58 991.74 994.46 997.41 1000.22 1002.67 1004.63 1006.10 1007.20 1008.06 1008.84 1009.64 1010.50 1011.37 1012.21 1012.93 1013.48 1013.88 1014.15 1014.38 1014.65
1009.67 1009.21 1008.78 1008.36 1007.97 1007.59 1007.25 1006.95 1006.71 1006.49 1006.23 1005.80 1005.08 1003.94 1002.32 1000.26 997.89 995.47 993.32 991.75 991.02 991.25 992.41 994.35 996.79 999.42 1001.90 1004.04 1005.73 1006.99 1007.92 1008.66 1009.36 1010.11 1010.94 1011.80 1012.62 1013.33 1013.88 1014.27 1014.54 1014.77 1015.03
1009.62 1009.26 1008.91 1008.56 1008.22 1007.86 1007.53 1007.23 1006.99 1006.80 1006.60 1006.31 1005.80 1004.97 1003.73 1002.11 1000.22 998.26 996.51 995.24 994.66 994.89 995.92 997.59 999.67 1001.88 1003.94 1005.69 1007.05 1008.04 1008.77 1009.38 1009.99 1010.68 1011.46 1012.29 1013.08 1013.77 1014.30 1014.68 1014.94 1015.16 1015.42
1009.63 1009.34 1009.06 1008.78 1008.48 1008.16 1007.83 1007.52 1007.27 1007.09 1006.94 1006.77 1006.46 1005.92 1005.09 1003.94 1002.56 1001.11 999.81 998.87 998.48 998.73 999.61 1000.99 1002.68 1004.44 1006.07 1007.41 1008.42 1009.15 1009.69 1010.16 1010.68 1011.31 1012.04 1012.82 1013.57 1014.22 1014.71 1015.06 1015.31 1015.52 1015.78
1009.70 1009.47 1009.25 1009.03 1008.77 1008.47 1008.15 1007.83 1007.55 1007.36 1007.23 1007.14 1006.99 1006.72 1006.24 1005.53 1004.64 1003.68 1002.81 1002.21 1002.00 1002.27 1003.01 1004.12 1005.44 1006.78 1008.00 1008.97 1009.69 1010.20 1010.58 1010.95 1011.40 1011.97 1012.64 1013.36 1014.05 1014.64 1015.10 1015.42 1015.64 1015.85 1016.10
1009.86 1009.65 1009.48 1009.30 1009.08 1008.81 1008.48 1008.15 1007.85 1007.62 1007.50 1007.44 1007.41 1007.32 1007.13 1006.78 1006.30 1005.76 1005.26 1004.93 1004.88 1005.16 1005.77 1006.63 1007.64 1008.64 1009.53 1010.22 1010.73 1011.08 1011.37 1011.68 1012.09 1012.61 1013.22 1013.88 1014.50 1015.03 1015.44 1015.73 1015.94 1016.15 1016.40
1010.07 1009.88 1009.74 1009.59 1009.40 1009.15 1008.83 1008.49 1008.17 1007.92 1007.77 1007.73 1007.75 1007.80 1007.79 1007.70 1007.53 1007.29 1007.06 1006.94 1006.99 1007.26 1007.76 1008.42 1009.18 1009.93 1010.58 1011.10 1011.49 1011.78 1012.03 1012.33 1012.71 1013.19 1013.75 1014.34 1014.90 1015.37 1015.73 1016.00 1016.22 1016.43 1016.69
1010.32 1010.14 1010.01 1009.88 1009.72 1009.49 1009.20 1008.86 1008.54 1008.27 1008.11 1008.06 1008.11 1008.21 1008.32 1008.39 1008.40 1008.36 1008.30 1008.30 1008.40 1008.64 1009.03 1009.54 1010.12 1010.70 1011.22 1011.66 1012.01 1012.30 1012.58 1012.89 1013.27 1013.73 1014.24 1014.75 1015.24 1015.66 1015.99 1016.26 1016.48 1016.71 1016.99
1010.57 1010.40 1010.27 1010.16 1010.02 1009.83 1009.56 1009.26 1008.95 1008.69 1008.53 1008.47 1008.52 1008.65 1008.80 1008.95 1009.06 1009.11 1009.15 1009.19 1009.29 1009.49 1009.78 1010.18 1010.64 1011.12 1011.59 1012.01 1012.38 1012.72 1013.05 1013.40 1013.79 1014.21 1014.67 1015.12 1015.54 1015.91 1016.23 1016.50 1016.75 1017.01 1017.30
1010.79 1010.63 1010.51 1010.41 1010.30 1010.13 1009.91 1009.66 1009.40 1009.17 1009.02 1008.97 1009.02 1009.15 1009.32 1009.50 1009.64 1009.73 1009.79 1009.84 1009.92 1010.06 1010.28 1010.58 1010.97 1011.41 1011.86 1012.31 1012.74 1013.14 1013.52 1013.90 1014.28 1014.67 1015.06 1015.45 1015.81 1016.15 1016.46 1016.75 1017.03 1017.33 1017.64
1010.97 1010.82 1010.70 1010.62 1010.52 1010.39 1010.23 1010.04 1009.84 1009.67 1009.56 1009.54 1009.60 1009.73 1009.90 1010.08 1010.23 1010.33 1010.40 1010.44 1010.48 1010.57 1010.74 1010.99 1011.32 1011.74 1012.20 1012.68 1013.16 1013.61 1014.03 1014.42 1014.79 1015.13 1015.45 1015.76 1016.06 1016.37 1016.67 1016.99 1017.31 1017.65 1017.98
1011.10 1010.96 1010.85 1010.77 1010.69 1010.60 1010.50 1010.38 1010.26 1010.16 1010.11 1010.13 1010.21 1010.35 1010.52 1010.70 1010.86 1010.97 1011.04 1011.08 1011.12 1011.18 1011.31 1011.53 1011.84 1012.23 1012.70 1013.20 1013.70 1014.18 1014.61 1014.99 1015.31 1015.58 1015.82 1016.06 1016.31 1016.58 1016.88 1017.21 1017.57 1017.94 1018.29
1011.22 1011.08 1010.97 1010.89 1010.82 1010.77 1010.72 1010.67 1010.63 1010.61 1010.62 1010.68 1010.79 1010.94 1011.12 1011.31 1011.49 1011.62 1011.73 1011.79 1011.85 1011.92 1012.05 1012.24 1012.53 1012.91 1013.37 1013.86 1014.36 1014.83 1015.24 1015.58 1015.83 1016.03 1016.19 1016.35 1016.54 1016.76 1017.05 1017.39 1017.76 1018.15 1018.51
1011.34 1011.21 1011.09 1011.00 1010.94 1010.92 1010.92 1010.94 1010.98 1011.02 1011.09 1011.18 1011.30 1011.46 1011.64 1011.85 1012.05 1012.23 1012.38 1012.51 1012.61 1012.72 1012.87 1013.07 1013.34 1013.70 1014.13 1014.60 1015.07 1015.50 1015.87 1016.15 1016.35 1016.47 1016.55 1016.63 1016.75 1016.92 1017.18 1017.50 1017.86 1018.24 1018.60
1011.50 1011.36 1011.22 1011.12 1011.07 1011.08 1011.14 1011.22 1011.32 1011.41 1011.51 1011.61 1011.73 1011.88 1012.06 1012.26 1012.49 1012.72 1012.94 1013.14 1013.31 1013.48 1013.66 1013.88 1014.15 1014.49 1014.88 1015.30 1015.73 1016.12 1016.45 1016.68 1016.81 1016.87 1016.88 1016.89 1016.93 1017.04 1017.24 1017.52 1017.85 1018.20 1018.52
1011.71 1011.54 1011.39 1011.28 1011.24 1011.29 1011.39 1011.53 1011.68 1011.81 1011.92 1012.01 1012.10 1012.21 1012.36 1012.55 1012.79 1013.06 1013.33 1013.60 1013.86 1014.09 1014.32 1014.56 1014.83 1015.14 1015.50 1015.88 1016.27 1016.62 1016.91 1017.10 1017.20 1017.21 1017.17 1017.11 1017.08 1017.12 1017.24 1017.44 1017.71 1018.00 1018.28
1011.96 1011.77 1011.59 1011.48 1011.46 1011.54 1011.69 1011.89 1012.08 1012.24 1012.35 1012.41 1012.46 1012.50 1012.59 1012.74 1012.96 1013.24 1013.56 1013.89 1014.20 1014.50 1014.77 1015.03 1015.30 1015.59 1015.92 1016.27 1016.62 1016.95 1017.22 1017.41 1017.49 1017.48 1017.40 1017.29 1017.19 1017.14 1017.17 1017.28 1017.45 1017.67 1017.89
1012.21 1012.00 1011.81 1011.70 1011.71 1011.83 1012.04 1012.29 1012.53 1012.71 1012.81 1012.84 1012.82 1012.79 1012.80 1012.88 1013.06 1013.32 1013.65 1014.00 1014.36 1014.69 1014.99 1015.27 1015.53 1015.81 1016.11 1016.44 1016.78 1017.10 1017.38 1017.58 1017.67 1017.66 1017.57 1017.42 1017.26 1017.12 1017.04 1017.04 1017.11 1017.23 1017.38
1012.42 1012.20 1012.02 1011.92 1011.96 1012.13 1012.39 1012.70 1012.98 1013.19 1013.29 1013.28 1013.20 1013.09 1013.02 1013.02 1013.13 1013.35 1013.66 1014.01 1014.38 1014.72 1015.03 1015.30 1015.56 1015.82 1016.10 1016.41 1016.75 1017.09 1017.39 1017.62 1017.75 1017.76 1017.66 1017.49 1017.27 1017.05 1016.87 1016.75 1016.71 1016.73 1016.79
1012.55 1012.34 1012.17 1012.10 1012.17 1012.38 1012.70 1013.06 1013.39 1013.63 1013.73 1013.70 1013.58 1013.41 1013.26 1013.19 1013.23 1013.39 1013.65 1013.98 1014.33 1014.66 1014.95 1015.21 1015.44 1015.68 1015.94 1016.24 1016.58 1016.94 1017.27 1017.54 1017.70 1017.75 1017.67 1017.48 1017.22 1016.94 1016.67 1016.45 1016.29 1016.21 1016.20
1012.57 1012.39 1012.24 1012.20 1012.30 1012.55 1012.91 1013.31 1013.69 1013.96 1014.08 1014.06 1013.91 1013.71 1013.51 1013.38 1013.36 1013.46 1013.67 1013.96 1014.26 1014.56 1014.83 1015.05 1015.26 1015.46 1015.70 1015.99 1016.32 1016.69 1017.04 1017.34 1017.55 1017.63 1017.57 1017.39 1017.11 1016.78 1016.44 1016.14 1015.89 1015.73 1015.64
1012.48 1012.35 1012.24 1012.22 1012.34 1012.61 1013.00 1013.43 1013.83 1014.13 1014.28 1014.28 1014.14 1013.94 1013.72 1013.56 1013.50 1013.56 1013.73 1013.96 1014.23 1014.48 1014.71 1014.89 1015.06 1015.23 1015.43 1015.69 1016.01 1016.37 1016.73 1017.06 1017.29 1017.40 1017.37 1017.21 1016.93 1016.58 1016.21 1015.85 1015.55 1015.32 1015.17
1012.30 1012.23 1012.17 1012.17 1012.30 1012.57 1012.95 1013.38 1013.79 1014.11 1014.30 1014.32 1014.22 1014.04 1013.84 1013.69 1013.62 1013.65 1013.79 1013.99 1014.21 1014.43 1014.61 1014.75 1014.88 1015.00 1015.17 1015.39 1015.68 1016.01 1016.36 1016.69 1016.94 1017.08 1017.08 1016.94 1016.69 1016.36 1015.99 1015.62 1015.29 1015.02 1014.83
Thickness
5772 5777 5779 5781 5781 5783 5784 5784 5785 5787 5787 5787 5786 5786 5786 5786 5786 5785 5785 5785 5785 5784 5783 5782 5781 5780 5779 5777 5774 5772 5770 5767 5765 5762 5760 5759 5758 5757 5756 5755 5754 5753 5752
5776 5778 5779 5780 5781 5782 5783 5784 5784 5785 5786 5786 5786 5785 5785 5785 5785 5785 5785 5785 5785 5784 5783 5782 5780 5779 5779 5777 5775 5772 5769 5766 5763 5761 5760 5759 5758 5756 5755 5754 5753 5752 5751
5777 5778 5779 5780 5781 5781 5782 5783 5784 5784 5785 5785 5785 5785 5785 5784 5783 5784 5784 5784 5784 5783 5782 5781 5780 5779 5778 5777 5774 5771 5768 5765 5763 5761 5759 5758 5757 5755 5754 5752 5752 5750 5749
5778 5779 5780 5780 5780 5781 5781 5782 5783 5783 5784 5785 5785 5784 5784 5783 5783 5783 5783 5783 5782 5782 5781 5780 5779 5778 5776 5775 5772 5770 5767 5765 5762 5760 5758 5757 5756 5755 5753 5751 5751 5749 5748
5779 5779 5780 5780 5780 5781 5781 5782 5783 5783 5783 5784 5784 5783 5783 5782 5782 5782 5782 5781 5781 5780 5779 5778 5777 5776 5774 5773 5771 5769 5766 5764 5761 5759 5758 5756 5755 5754 5752 5751 5749 5749 5748
5778 5779 5780 5781 5781 5781 5781 5782 5783 5783 5783 5783 5783 5782 5782 5781 5780 5781 5781 5780 5779 5778 5777 5777 5775 5774 5772 5771 5769 5767 5765 5763 5760 5758 5757 5756 5754 5753 5751 5750 5749 5748 5747
5779 5780 5780 5781 5781 5781 5782 5782 5783 5783 5783 5783 5782 5782 5781 5780 5779 5779 5779 5778 5778 5777 5776 5775 5773 5772 5771 5769 5768 5766 5764 5762 5760 5757 5755 5754 5753 5752 5751 5749 5748 5747 5746
5780 5780 5780 5780 5781 5781 5781 5782 5783 5783 5783 5782 5782 5781 5780 5779 5778 5777 5777 5776 5777 5776 5776 5775 5773 5770 5770 5768 5766 5764 5763 5761 5759 5757 5754 5753 5752 5751 5750 5749 5748 5746 5745
5781 5780 5780 5780 5780 5781 5781 5782 5782 5782 5782 5782 5781 5780 5779 5778 5777 5776 5775 5775 5775 5775 5775 5773 5772 5770 5768 5767 5765 5763 5762 5761 5758 5756 5754 5752 5751 5750 5749 5748 5747 5745 5744
5781 5780 5780 5780 5780 5781 5781 5781 5782 5782 5781 5781 5780 5779 5778 5777 5776 5775 5775 5774 5774 5774 5774 5772 5771 5769 5767 5766 5764 5763 5761 5759 5757 5755 5754 5752 5750 5749 5748 5747 5746 5745 5743
5780 5780 5781 5781 5781 5781 5781 5781 5781 5781 5781 5780 5780 5779 5778 5777 5776 5775 5774 5774 5773 5773 5772 5771 5770 5768 5766 5765 5764 5762 5759 5758 5757 5755 5753 5751 5750 5749 5747 5745 5744 5743 5742
5778 5780 5782 5782 5782 5782 5781 5781 5781 5780 5780 5780 5779 5778 5777 5776 5775 5774 5774 5773 5773 5772 5771 5770 5769 5767 5765 5764 5762 5760 5758 5757 5755 5753 5752 5751 5750 5748 5746 5745 5744 5743 5741
5782 5783 5783 5784 5783 5783 5782 5782 5781 5781 5780 5780 5779 5778 5776 5775 5774 5773 5773 5772 5772 5771 5770 5768 5767 5765 5764 5762 5760 5758 5756 5755 5753 5751 5750 5750 5748 5747 5745 5744 5743 5741 5740
5785 5785 5786 5786 5785 5784 5784 5783 5781 5780 5779 5779 5778 5777 5776 5774 5773 5772 5771 5771 5770 5769 5768 5766 5765 5763 5762 5760 5759 5757 5755 5754 5751 5750 5749 5748 5747 5746 5745 5744 5742 5741 5739
5787 5787 5788 5788 5787 5785 5784 5783 5782 5781 5779 5779 5778 5777 5776 5775 5773 5772 5770 5770 5769 5768 5767 5765 5763 5762 5761 5759 5758 5756 5754 5752 5750 5749 5748 5747 5746 5745 5744 5743 5742 5740 5738
5789 5789 5790 5789 5788 5787 5784 5783 5783 5782 5781 5780 5778 5777 5776 5775 5774 5772 5770 5769 5768 5767 5765 5764 5762 5761 5759 5757 5756 5754 5752 5750 5749 5748 5747 5746 5745 5743 5743 5742 5741 5739 5738
5793 5792 5791 5791 5790 5788 5785 5784 5784 5783 5782 5780 5779 5778 5777 5776 5774 5772 5770 5768 5767 5765 5764 5762 5760 5759 5757 5755 5753 5752 5751 5749 5748 5746 5745 5744 5743 5742 5741 5740 5739 5738 5737
5796 5794 5794 5795 5791 5789 5787 5786 5785 5783 5782 5781 5779 5778 5777 5776 5775 5773 5770 5768 5766 5765 5763 5760 5758 5756 5754 5752 5750 5750 5749 5748 5746 5744 5743 5742 5741 5740 5739 5738 5737 5736 5735
5799 5797 5795 5795 5792 5791 5789 5787 5785 5784 5782 5781 5780 5778 5777 5776 5775 5773 5770 5768 5766 5764 5762 5760 5757 5755 5752 5750 5749 5748 5747 5746 5744 5743 5741 5740 5738 5737 5736 5736 5735 5734 5732
5802 5800 5797 5796 5794 5792 5790 5788 5785 5783 5782 5781 5780 5779 5778 5776 5775 5773 5770 5767 5766 5763 5761 5759 5756 5755 5753 5750 5749 5746 5745 5745 5744 5742 5741 5739 5737 5736 5734 5733 5732 5731 5730
5802 5800 5798 5795 5794 5793 5789 5786 5782 5780 5781 5780 5780 5779 5778 5777 5775 5773 5770 5767 5765 5762 5760 5759 5757 5754 5751 5749 5744 5740 5740 5742 5741 5741 5740 5738 5736 5735 5733 5732 5730 5729 5728
5802 5801 5799 5797 5796 5794 5792 5789 5786 5784 5782 5781 5780 5779 5778 5777 5775 5773 5770 5767 5765 5762 5760 5758 5756 5752 5750 5749 5743 5736 5731 5732 5736 5739 5738 5737 5736 5735 5733 5731 5729 5727 5726
5805 5803 5802 5799 5798 5796 5794 5791 5788 5784 5781 5779 5778 5778 5778 5777 5775 5773 5771 5768 5766 5763 5760 5758 5757 5753 5749 5749 5748 5741 5731 5726 5729 5733 5735 5735 5734 5732 5731 5730 5727 5726 5724
5810 5808 5805 5802 5800 5798 5796 5792 5788 5783 5778 5778 5778 5778 5778 5777 5775 5773 5771 5769 5766 5764 5761 5760 5759 5756 5752 5747 5748 5747 5744 5739 5730 5726 5729 5731 5731 5730 5729 5728 5726 5725 5723
5815 5811 5807 5804 5802 5801 5798 5795 5790 5785 5783 5781 5780 5778 5777 5776 5775 5774 5772 5769 5767 5765 5763 5761 5759 5757 5754 5751 5748 5746 5743 5741 5737 5728 5723 5725 5726 5727 5727 5726 5725 5723 5721
5817 5814 5810 5805 5803 5802 5800 5796 5792 5788 5784 5781 5778 5776 5775 5774 5774 5773 5772 5769 5767 5765 5763 5761 5759 5757 5755 5753 5750 5747 5744 5739 5736 5731 5725 5722 5721 5723 5724 5724 5722 5720 5718